FIN9AP EFHK-LIPZ

Flight info

Callsign FIN9AP
Flight time 2h 47m
Altitude 36000
Route VALOX DCT DANKA DCT ROSAX DCT LEMSI DCT PIMEX DCT ANFEV DCT PENOR DCT RASAN DCT ODLIV DCT ADLET DCT ARNOS DCT KUBUD DCT OSLOP DCT ROSKA M859 TULIK Z71 BASOG
Aircraft A319/M-SDE3FGHIRWY/LB1

Departure

Time 2026-05-06 08:42
Airport Helsinki Vantaa Airport (EFHK)

Arrival

Time 2026-05-06 11:29
Airport Venice Marco Polo Airport (LIPZ)
Time Latitude Longitude Altitude Speed Heading
2026-05-06 08:15 60.31978 24.96481 189 ft 0 kts 138°
2026-05-06 08:33 60.31976 24.96485 189 ft 0 kts 138°
2026-05-06 08:33 60.31971 24.96495 189 ft 1 kts 139°
2026-05-06 08:33 60.31961 24.96518 189 ft 2 kts 111°
2026-05-06 08:34 60.31966 24.96554 189 ft 3 kts 57°
2026-05-06 08:34 60.32016 24.96669 189 ft 7 kts 48°
2026-05-06 08:34 60.32057 24.96756 189 ft 9 kts 46°
2026-05-06 08:35 60.32100 24.96846 189 ft 8 kts 41°
2026-05-06 08:35 60.32155 24.96846 189 ft 8 kts 330°
2026-05-06 08:35 60.32205 24.96785 189 ft 8 kts 329°
2026-05-06 08:35 60.32256 24.96724 189 ft 8 kts 330°
2026-05-06 08:36 60.32307 24.96664 189 ft 8 kts 330°
2026-05-06 08:36 60.32358 24.96603 189 ft 8 kts 329°
2026-05-06 08:36 60.32410 24.96541 189 ft 8 kts 329°
2026-05-06 08:36 60.32461 24.96481 189 ft 8 kts 330°
2026-05-06 08:37 60.32513 24.96423 189 ft 8 kts 331°
2026-05-06 08:37 60.32565 24.96367 189 ft 8 kts 332°
2026-05-06 08:37 60.32616 24.96311 189 ft 8 kts 328°
2026-05-06 08:37 60.32667 24.96247 189 ft 9 kts 328°
2026-05-06 08:38 60.32726 24.96172 189 ft 10 kts 329°
2026-05-06 08:38 60.32794 24.96090 189 ft 11 kts 329°
2026-05-06 08:38 60.32868 24.96007 189 ft 12 kts 330°
2026-05-06 08:38 60.32949 24.95914 189 ft 13 kts 330°
2026-05-06 08:39 60.33034 24.95813 189 ft 14 kts 330°
2026-05-06 08:39 60.33116 24.95688 189 ft 15 kts 317°
2026-05-06 08:39 60.33196 24.95537 189 ft 15 kts 307°
2026-05-06 08:39 60.33187 24.95346 189 ft 15 kts 224°
2026-05-06 08:40 60.33118 24.95176 189 ft 15 kts 245°
2026-05-06 08:40 60.33109 24.94957 189 ft 16 kts 273°
2026-05-06 08:40 60.33115 24.94731 189 ft 16 kts 273°
2026-05-06 08:40 60.33117 24.94502 189 ft 14 kts 271°
2026-05-06 08:41 60.33103 24.94362 189 ft 7 kts 232°
2026-05-06 08:41 60.33054 24.94253 188 ft 26 kts 228°
2026-05-06 08:41 60.32754 24.93593 189 ft 99 kts 229°
2026-05-06 08:41 60.32137 24.92243 205 ft 157 kts 227°
2026-05-06 08:42 60.31370 24.90599 688 ft 168 kts 229°
2026-05-06 08:42 60.30544 24.88886 1383 ft 173 kts 229°
2026-05-06 08:42 60.29849 24.87060 2213 ft 166 kts 245°
2026-05-06 08:42 60.29653 24.84775 2714 ft 174 kts 278°
2026-05-06 08:43 60.29905 24.82293 3175 ft 190 kts 285°
2026-05-06 08:43 60.30224 24.79614 3638 ft 206 kts 279°
2026-05-06 08:43 60.30130 24.76597 4072 ft 229 kts 255°
2026-05-06 08:43 60.29569 24.73572 4879 ft 234 kts 251°
2026-05-06 08:44 60.28939 24.70508 5562 ft 244 kts 250°
2026-05-06 08:44 60.28145 24.67377 6079 ft 263 kts 233°
2026-05-06 08:44 60.26671 24.65181 6899 ft 272 kts 210°
2026-05-06 08:44 60.24936 24.63616 7764 ft 276 kts 206°
2026-05-06 08:45 60.23158 24.62102 8641 ft 279 kts 207°
2026-05-06 08:45 60.21407 24.60548 9518 ft 281 kts 208°
2026-05-06 08:45 60.19627 24.58902 10346 ft 284 kts 210°
2026-05-06 08:45 60.17798 24.57161 10865 ft 298 kts 211°
2026-05-06 08:46 60.15882 24.55299 11273 ft 315 kts 211°
2026-05-06 08:46 60.13894 24.53361 11957 ft 320 kts 212°
2026-05-06 08:46 60.11907 24.51429 12808 ft 320 kts 212°
2026-05-06 08:46 60.09920 24.49492 13623 ft 320 kts 213°
2026-05-06 08:47 60.07920 24.47533 14274 ft 324 kts 214°
2026-05-06 08:47 60.05889 24.45538 14905 ft 329 kts 214°
2026-05-06 08:47 60.03834 24.43524 15618 ft 330 kts 214°
2026-05-06 08:47 60.01765 24.41502 16332 ft 331 kts 214°
2026-05-06 08:48 59.99712 24.39500 17024 ft 332 kts 214°
2026-05-06 08:48 59.97660 24.37498 17686 ft 332 kts 214°
2026-05-06 08:48 59.95584 24.35479 18290 ft 335 kts 214°
2026-05-06 08:48 59.93473 24.33422 18851 ft 338 kts 214°
2026-05-06 08:49 59.91366 24.31367 19428 ft 340 kts 214°
2026-05-06 08:49 59.89241 24.29300 20002 ft 342 kts 214°
2026-05-06 08:49 59.87093 24.27233 20581 ft 343 kts 214°
2026-05-06 08:49 59.84960 24.25184 21128 ft 345 kts 214°
2026-05-06 08:50 59.82789 24.23097 21657 ft 347 kts 214°
2026-05-06 08:50 59.80621 24.21015 22180 ft 350 kts 214°
2026-05-06 08:50 59.78429 24.18906 22705 ft 351 kts 214°
2026-05-06 08:50 59.76241 24.16796 23228 ft 351 kts 215°
2026-05-06 08:51 59.74083 24.14524 23709 ft 350 kts 218°
2026-05-06 08:51 59.72028 24.12077 24155 ft 350 kts 220°
2026-05-06 08:51 59.69999 24.09359 24625 ft 349 kts 223°
2026-05-06 08:51 59.68030 24.06564 25057 ft 351 kts 223°
2026-05-06 08:52 59.66027 24.03752 25446 ft 354 kts 223°
2026-05-06 08:52 59.64030 24.00949 25848 ft 357 kts 223°
2026-05-06 08:52 59.62011 23.98111 26244 ft 359 kts 223°
2026-05-06 08:52 59.59963 23.95232 26646 ft 361 kts 223°
2026-05-06 08:53 59.57938 23.92384 27035 ft 362 kts 223°
2026-05-06 08:53 59.55880 23.89491 27447 ft 363 kts 223°
2026-05-06 08:53 59.53813 23.86594 27809 ft 366 kts 224°
2026-05-06 08:53 59.51751 23.83695 28174 ft 367 kts 224°
2026-05-06 08:54 59.49725 23.80654 28544 ft 365 kts 226°
2026-05-06 08:54 59.47788 23.77438 28904 ft 364 kts 229°
2026-05-06 08:54 59.45950 23.74060 29246 ft 363 kts 232°
2026-05-06 08:54 59.44196 23.70507 29568 ft 363 kts 234°
2026-05-06 08:55 59.42500 23.66863 29940 ft 363 kts 234°
2026-05-06 08:55 59.40786 23.63231 30372 ft 361 kts 234°
2026-05-06 08:55 59.39087 23.59628 30845 ft 359 kts 234°
2026-05-06 08:55 59.37407 23.56070 31302 ft 356 kts 234°
2026-05-06 08:56 59.35745 23.52545 31661 ft 356 kts 234°
2026-05-06 08:56 59.34062 23.48973 32014 ft 355 kts 234°
2026-05-06 08:56 59.32397 23.45448 32353 ft 355 kts 234°
2026-05-06 08:56 59.30723 23.41903 32681 ft 355 kts 234°
2026-05-06 08:57 59.29064 23.38397 33016 ft 355 kts 234°
2026-05-06 08:57 59.27402 23.34892 33345 ft 354 kts 233°
2026-05-06 08:57 59.25725 23.31356 33663 ft 354 kts 233°
2026-05-06 08:57 59.24067 23.27850 33988 ft 354 kts 233°
2026-05-06 08:58 59.22396 23.24336 34292 ft 354 kts 233°
2026-05-06 08:58 59.20724 23.20820 34556 ft 354 kts 233°
2026-05-06 08:58 59.19057 23.17329 34794 ft 355 kts 233°
2026-05-06 08:58 59.17380 23.13813 35004 ft 355 kts 233°
2026-05-06 08:59 59.15689 23.10287 35159 ft 357 kts 233°
2026-05-06 08:59 59.13986 23.06732 35277 ft 359 kts 233°
2026-05-06 08:59 59.12282 23.03190 35417 ft 359 kts 233°
2026-05-06 08:59 59.10580 22.99655 35534 ft 361 kts 233°
2026-05-06 09:00 59.08836 22.96033 35633 ft 363 kts 232°
2026-05-06 09:00 59.07105 22.92449 35765 ft 365 kts 233°
2026-05-06 09:00 59.05364 22.88852 35902 ft 366 kts 232°
2026-05-06 09:01 59.01878 22.81666 35987 ft 367 kts 232°
2026-05-06 09:01 58.98371 22.74444 35992 ft 368 kts 232°
2026-05-06 09:02 58.94862 22.67244 35995 ft 367 kts 232°
2026-05-06 09:02 58.91366 22.60095 35994 ft 367 kts 232°
2026-05-06 09:03 58.87829 22.52915 35996 ft 367 kts 232°
2026-05-06 09:03 58.84304 22.45806 36002 ft 366 kts 232°
2026-05-06 09:04 58.80780 22.38694 36004 ft 367 kts 232°
2026-05-06 09:04 58.79004 22.35112 35860 ft 368 kts 232°
2026-05-06 09:04 58.77239 22.31550 35918 ft 370 kts 231°
2026-05-06 09:05 58.73685 22.24375 35974 ft 375 kts 231°
2026-05-06 09:05 58.70039 22.17053 35993 ft 382 kts 231°
2026-05-06 09:06 58.66376 22.09734 35996 ft 383 kts 231°
2026-05-06 09:06 58.62695 22.02399 36004 ft 383 kts 231°
2026-05-06 09:07 58.58988 21.95036 36017 ft 384 kts 230°
2026-05-06 09:07 58.55295 21.87724 36013 ft 384 kts 230°
2026-05-06 09:08 58.51568 21.80370 36000 ft 385 kts 230°
2026-05-06 09:08 58.47849 21.73063 35989 ft 385 kts 230°
2026-05-06 09:09 58.44142 21.65787 36005 ft 385 kts 230°
2026-05-06 09:09 58.40414 21.58504 36004 ft 385 kts 230°
2026-05-06 09:10 58.36669 21.51211 35994 ft 385 kts 230°
2026-05-06 09:10 58.32935 21.43958 35988 ft 385 kts 230°
2026-05-06 09:11 58.29201 21.36730 35989 ft 384 kts 230°
2026-05-06 09:11 58.25463 21.29509 35994 ft 384 kts 229°
2026-05-06 09:12 58.21728 21.22317 35998 ft 385 kts 229°
2026-05-06 09:12 58.17870 21.15259 35999 ft 387 kts 227°
2026-05-06 09:13 58.13959 21.08310 36014 ft 387 kts 227°
2026-05-06 09:13 58.10051 21.01367 35989 ft 388 kts 227°
2026-05-06 09:14 58.06114 20.94396 35988 ft 388 kts 227°
2026-05-06 09:14 58.02210 20.87499 35983 ft 387 kts 227°
2026-05-06 09:15 57.98285 20.80578 35989 ft 387 kts 227°
2026-05-06 09:15 57.94340 20.73645 36002 ft 388 kts 226°
2026-05-06 09:16 57.90412 20.66769 35983 ft 388 kts 227°
2026-05-06 09:16 57.86434 20.59856 35977 ft 389 kts 226°
2026-05-06 09:17 57.82469 20.52996 35986 ft 389 kts 226°
2026-05-06 09:17 57.78510 20.46149 35994 ft 390 kts 226°
2026-05-06 09:18 57.74550 20.39302 35978 ft 389 kts 226°
2026-05-06 09:18 57.70585 20.32468 35973 ft 390 kts 226°
2026-05-06 09:19 57.66608 20.25607 35984 ft 391 kts 226°
2026-05-06 09:19 57.62598 20.18715 35983 ft 392 kts 225°
2026-05-06 09:20 57.58625 20.11920 35979 ft 391 kts 225°
2026-05-06 09:20 57.54618 20.05096 35993 ft 391 kts 225°
2026-05-06 09:21 57.50596 19.98266 35988 ft 392 kts 225°
2026-05-06 09:21 57.46585 19.91475 35968 ft 392 kts 225°
2026-05-06 09:22 57.42556 19.84677 35967 ft 392 kts 225°
2026-05-06 09:22 57.38522 19.77891 35981 ft 392 kts 225°
2026-05-06 09:23 57.34495 19.71138 35965 ft 392 kts 225°
2026-05-06 09:23 57.30491 19.64447 35968 ft 392 kts 225°
2026-05-06 09:24 57.26425 19.57670 35975 ft 393 kts 225°
2026-05-06 09:24 57.22399 19.50979 35964 ft 393 kts 225°
2026-05-06 09:25 57.18339 19.44257 35963 ft 393 kts 225°
2026-05-06 09:25 57.14264 19.37524 35956 ft 394 kts 224°
2026-05-06 09:26 57.10196 19.30824 35961 ft 393 kts 224°
2026-05-06 09:26 57.06144 19.24145 35961 ft 394 kts 224°
2026-05-06 09:27 57.02082 19.17487 35955 ft 394 kts 223°
2026-05-06 09:27 56.97996 19.10824 35947 ft 394 kts 224°
2026-05-06 09:28 56.93892 19.04146 35944 ft 395 kts 223°
2026-05-06 09:28 56.89889 18.97654 35938 ft 395 kts 223°
2026-05-06 09:29 56.85785 18.91062 35939 ft 395 kts 223°
2026-05-06 09:29 56.81646 18.84427 35937 ft 395 kts 223°
2026-05-06 09:30 56.77539 18.77842 35936 ft 396 kts 223°
2026-05-06 09:30 56.73409 18.71232 35934 ft 397 kts 223°
2026-05-06 09:31 56.69277 18.64633 35933 ft 397 kts 223°
2026-05-06 09:31 56.65139 18.58051 35934 ft 398 kts 223°
2026-05-06 09:32 56.60965 18.51430 35931 ft 398 kts 223°
2026-05-06 09:32 56.56811 18.44859 35929 ft 398 kts 223°
2026-05-06 09:33 56.52661 18.38310 35927 ft 399 kts 223°
2026-05-06 09:33 56.48462 18.31700 35928 ft 399 kts 222°
2026-05-06 09:34 56.44285 18.25126 35924 ft 401 kts 221°
2026-05-06 09:34 56.40094 18.18569 35925 ft 400 kts 221°
2026-05-06 09:35 56.35898 18.12025 35923 ft 401 kts 221°
2026-05-06 09:35 56.31668 18.05452 35921 ft 402 kts 221°
2026-05-06 09:36 56.27472 17.98946 35916 ft 401 kts 221°
2026-05-06 09:36 56.23235 17.92403 35917 ft 401 kts 221°
2026-05-06 09:37 56.19014 17.85903 35913 ft 403 kts 221°
2026-05-06 09:37 56.14785 17.79412 35914 ft 403 kts 221°
2026-05-06 09:38 56.10521 17.72885 35913 ft 403 kts 221°
2026-05-06 09:38 56.06259 17.66381 35909 ft 405 kts 221°
2026-05-06 09:39 56.01982 17.59877 35905 ft 405 kts 221°
2026-05-06 09:39 55.97683 17.53356 35899 ft 406 kts 221°
2026-05-06 09:40 55.93395 17.46871 35886 ft 406 kts 220°
2026-05-06 09:40 55.86927 17.37158 35891 ft 407 kts 221°
2026-05-06 09:41 55.82513 17.31020 35882 ft 408 kts 215°
2026-05-06 09:41 55.77673 17.25698 35881 ft 409 kts 209°
2026-05-06 09:42 55.72546 17.21394 35871 ft 411 kts 203°
2026-05-06 09:42 55.67153 17.18092 35861 ft 412 kts 199°
2026-05-06 09:43 55.61716 17.15038 35847 ft 413 kts 198°
2026-05-06 09:43 55.56177 17.12272 35853 ft 414 kts 197°
2026-05-06 09:44 55.50668 17.09553 35859 ft 415 kts 197°
2026-05-06 09:44 55.45123 17.06812 35859 ft 414 kts 197°
2026-05-06 09:45 55.39605 17.04086 35856 ft 413 kts 197°
2026-05-06 09:45 55.34082 17.01362 35855 ft 413 kts 197°
2026-05-06 09:46 55.28558 16.98642 35853 ft 414 kts 197°
2026-05-06 09:46 55.23006 16.95919 35855 ft 414 kts 197°
2026-05-06 09:47 55.17498 16.93223 35848 ft 414 kts 196°
2026-05-06 09:47 55.11958 16.90521 35833 ft 415 kts 196°
2026-05-06 09:48 55.06406 16.87822 35827 ft 416 kts 196°
2026-05-06 09:48 55.00825 16.85116 35828 ft 417 kts 196°
2026-05-06 09:49 54.95239 16.82417 35814 ft 418 kts 196°
2026-05-06 09:49 54.89687 16.79737 35813 ft 418 kts 196°
2026-05-06 09:50 54.84100 16.77065 35796 ft 418 kts 196°
2026-05-06 09:50 54.78498 16.74385 35784 ft 419 kts 195°
2026-05-06 09:51 54.72876 16.71705 35808 ft 420 kts 196°
2026-05-06 09:51 54.67240 16.69022 35791 ft 419 kts 196°
2026-05-06 09:52 54.61622 16.66351 35776 ft 421 kts 196°
2026-05-06 09:52 54.56030 16.63697 35785 ft 421 kts 196°
2026-05-06 09:53 54.50386 16.61029 35783 ft 422 kts 196°
2026-05-06 09:53 54.44723 16.58358 35779 ft 423 kts 196°
2026-05-06 09:54 54.39046 16.55691 35777 ft 424 kts 196°
2026-05-06 09:54 54.33368 16.53029 35762 ft 425 kts 196°
2026-05-06 09:55 54.27663 16.50364 35774 ft 425 kts 196°
2026-05-06 09:55 54.21959 16.47706 35759 ft 425 kts 196°
2026-05-06 09:56 54.16296 16.45074 35755 ft 425 kts 196°
2026-05-06 09:56 54.10565 16.42420 35748 ft 426 kts 196°
2026-05-06 09:57 54.04884 16.39796 35745 ft 427 kts 195°
2026-05-06 09:57 53.99141 16.37151 35737 ft 428 kts 196°
2026-05-06 09:58 53.93398 16.34512 35740 ft 429 kts 195°
2026-05-06 09:58 53.87658 16.31860 35727 ft 429 kts 195°
2026-05-06 09:59 53.81900 16.29224 35736 ft 430 kts 195°
2026-05-06 09:59 53.76133 16.26597 35723 ft 429 kts 195°
2026-05-06 10:00 53.70382 16.23984 35727 ft 429 kts 195°
2026-05-06 10:00 53.64631 16.21380 35713 ft 428 kts 195°
2026-05-06 10:01 53.58911 16.18798 35716 ft 427 kts 195°
2026-05-06 10:01 53.53164 16.16211 35701 ft 427 kts 195°
2026-05-06 10:02 53.47426 16.13634 35714 ft 427 kts 195°
2026-05-06 10:02 53.41673 16.11058 35698 ft 427 kts 195°
2026-05-06 10:03 53.35966 16.08510 35701 ft 427 kts 195°
2026-05-06 10:03 53.30204 16.05946 35693 ft 427 kts 195°
2026-05-06 10:04 53.24503 16.03413 35698 ft 427 kts 195°
2026-05-06 10:04 53.18727 16.00856 35713 ft 428 kts 195°
2026-05-06 10:05 53.12978 15.98316 35716 ft 427 kts 195°
2026-05-06 10:05 53.07243 15.95791 35700 ft 427 kts 195°
2026-05-06 10:06 53.01517 15.93276 35693 ft 427 kts 195°
2026-05-06 10:06 52.95784 15.90765 35711 ft 426 kts 195°
2026-05-06 10:07 52.90072 15.88270 35708 ft 426 kts 195°
2026-05-06 10:07 52.84300 15.85768 35702 ft 426 kts 196°
2026-05-06 10:08 52.78586 15.83296 35707 ft 426 kts 196°
2026-05-06 10:08 52.72882 15.80829 35708 ft 426 kts 196°
2026-05-06 10:09 52.67139 15.78350 35709 ft 425 kts 196°
2026-05-06 10:09 52.61446 15.75898 35706 ft 424 kts 196°
2026-05-06 10:10 52.55750 15.73450 35708 ft 424 kts 196°
2026-05-06 10:10 52.50016 15.70992 35704 ft 424 kts 196°
2026-05-06 10:11 52.44349 15.68570 35701 ft 424 kts 196°
2026-05-06 10:11 52.38638 15.66136 35702 ft 423 kts 196°
2026-05-06 10:12 52.32954 15.63720 35710 ft 423 kts 197°
2026-05-06 10:12 52.27292 15.61318 35704 ft 423 kts 197°
2026-05-06 10:13 52.21617 15.58921 35696 ft 421 kts 197°
2026-05-06 10:13 52.15941 15.56526 35706 ft 421 kts 197°
2026-05-06 10:14 52.10267 15.54137 35713 ft 421 kts 197°
2026-05-06 10:14 52.04648 15.51779 35942 ft 421 kts 197°
2026-05-06 10:15 52.01814 15.50593 35824 ft 418 kts 197°
2026-05-06 10:15 51.98992 15.49413 35761 ft 418 kts 197°
2026-05-06 10:15 51.93379 15.47070 35599 ft 418 kts 197°
2026-05-06 10:16 51.87741 15.44725 35680 ft 420 kts 197°
2026-05-06 10:16 51.84554 15.43408 35705 ft 420 kts 197°
2026-05-06 10:17 51.78897 15.41072 35715 ft 420 kts 197°
2026-05-06 10:17 51.73233 15.38733 35729 ft 420 kts 197°
2026-05-06 10:18 51.67569 15.36399 35730 ft 419 kts 197°
2026-05-06 10:18 51.61916 15.34069 35733 ft 419 kts 197°
2026-05-06 10:19 51.56283 15.31728 35731 ft 419 kts 197°
2026-05-06 10:19 51.50631 15.29399 35732 ft 419 kts 197°
2026-05-06 10:20 51.44996 15.27095 35755 ft 419 kts 197°
2026-05-06 10:20 51.39344 15.24791 35740 ft 419 kts 197°
2026-05-06 10:21 51.33730 15.22509 35730 ft 419 kts 197°
2026-05-06 10:21 51.28104 15.20231 35745 ft 418 kts 197°
2026-05-06 10:22 51.22449 15.17946 35738 ft 417 kts 197°
2026-05-06 10:22 51.16856 15.15694 35735 ft 417 kts 197°
2026-05-06 10:23 51.11205 15.13418 35757 ft 417 kts 197°
2026-05-06 10:23 51.05596 15.11167 35756 ft 417 kts 197°
2026-05-06 10:24 50.99997 15.08907 35790 ft 416 kts 198°
2026-05-06 10:24 50.94450 15.06484 35781 ft 415 kts 198°
2026-05-06 10:25 50.88880 15.04043 35757 ft 415 kts 198°
2026-05-06 10:25 50.83338 15.01640 35752 ft 415 kts 198°
2026-05-06 10:26 50.77768 14.99234 35755 ft 415 kts 198°
2026-05-06 10:26 50.72144 14.96801 35751 ft 421 kts 198°
2026-05-06 10:27 50.66542 14.94386 35750 ft 421 kts 198°
2026-05-06 10:27 50.60894 14.91954 35742 ft 421 kts 198°
2026-05-06 10:28 50.55262 14.89538 35747 ft 421 kts 198°
2026-05-06 10:28 50.49622 14.87137 35739 ft 421 kts 198°
2026-05-06 10:29 50.43916 14.85251 35753 ft 423 kts 195°
2026-05-06 10:29 50.38135 14.83471 35752 ft 423 kts 194°
2026-05-06 10:30 50.32394 14.81704 35751 ft 422 kts 194°
2026-05-06 10:30 50.26631 14.79943 35765 ft 423 kts 195°
2026-05-06 10:31 50.20881 14.78190 35764 ft 422 kts 194°
2026-05-06 10:31 50.15114 14.76437 35771 ft 422 kts 194°
2026-05-06 10:32 50.09364 14.74696 35773 ft 422 kts 194°
2026-05-06 10:32 50.03618 14.72960 35776 ft 422 kts 195°
2026-05-06 10:33 49.97839 14.71216 35775 ft 423 kts 195°
2026-05-06 10:33 49.92081 14.69485 35781 ft 422 kts 195°
2026-05-06 10:34 49.86316 14.67758 35777 ft 423 kts 195°
2026-05-06 10:34 49.80518 14.66034 35773 ft 423 kts 195°
2026-05-06 10:35 49.74765 14.64321 35777 ft 422 kts 195°
2026-05-06 10:35 49.69007 14.62610 35779 ft 423 kts 195°
2026-05-06 10:36 49.63259 14.60903 35790 ft 423 kts 195°
2026-05-06 10:36 49.57501 14.59194 35788 ft 423 kts 195°
2026-05-06 10:37 49.51736 14.57491 35787 ft 423 kts 195°
2026-05-06 10:37 49.45943 14.55783 35787 ft 423 kts 195°
2026-05-06 10:38 49.40169 14.54081 35785 ft 423 kts 195°
2026-05-06 10:38 49.34414 14.52393 35778 ft 423 kts 195°
2026-05-06 10:39 49.28664 14.50709 35780 ft 423 kts 195°
2026-05-06 10:39 49.22870 14.49014 35777 ft 423 kts 195°
2026-05-06 10:40 49.17127 14.47340 35779 ft 423 kts 195°
2026-05-06 10:40 49.11349 14.45660 35777 ft 423 kts 195°
2026-05-06 10:41 49.05605 14.43992 35781 ft 422 kts 195°
2026-05-06 10:41 48.99821 14.42316 35778 ft 422 kts 195°
2026-05-06 10:42 48.94073 14.40657 35776 ft 421 kts 195°
2026-05-06 10:42 48.88321 14.39002 35780 ft 422 kts 195°
2026-05-06 10:43 48.82536 14.37347 35776 ft 422 kts 195°
2026-05-06 10:44 48.73906 14.34876 35777 ft 422 kts 195°
2026-05-06 10:44 48.68158 14.33206 35780 ft 421 kts 195°
2026-05-06 10:45 48.62428 14.31557 35779 ft 422 kts 195°
2026-05-06 10:45 48.56651 14.29865 35776 ft 420 kts 197°
2026-05-06 10:46 48.51028 14.27778 35771 ft 419 kts 198°
2026-05-06 10:46 48.45345 14.25668 35768 ft 419 kts 198°
2026-05-06 10:47 48.39722 14.23580 35768 ft 418 kts 198°
2026-05-06 10:47 48.34078 14.21484 35767 ft 418 kts 198°
2026-05-06 10:48 48.28444 14.19394 35764 ft 418 kts 198°
2026-05-06 10:48 48.22785 14.17298 35764 ft 417 kts 198°
2026-05-06 10:49 48.17178 14.15226 35762 ft 416 kts 198°
2026-05-06 10:49 48.11579 14.13162 35757 ft 417 kts 198°
2026-05-06 10:50 48.05951 14.11092 35759 ft 416 kts 198°
2026-05-06 10:50 48.00330 14.09030 35758 ft 417 kts 198°
2026-05-06 10:51 47.94730 14.06980 35757 ft 417 kts 198°
2026-05-06 10:51 47.89081 14.04919 35771 ft 417 kts 198°
2026-05-06 10:52 47.83461 14.02885 35782 ft 417 kts 198°
2026-05-06 10:52 47.77852 14.00851 35793 ft 417 kts 198°
2026-05-06 10:53 47.72197 13.98804 35800 ft 417 kts 198°
2026-05-06 10:53 47.66606 13.96783 35807 ft 417 kts 199°
2026-05-06 10:54 47.60974 13.94747 35816 ft 417 kts 199°
2026-05-06 10:54 47.55333 13.92712 35831 ft 417 kts 199°
2026-05-06 10:55 47.49699 13.90684 35832 ft 417 kts 199°
2026-05-06 10:55 47.44040 13.88651 35829 ft 417 kts 198°
2026-05-06 10:56 47.38401 13.86634 35831 ft 418 kts 199°
2026-05-06 10:56 47.32751 13.84616 35834 ft 419 kts 199°
2026-05-06 10:57 47.27124 13.82608 35840 ft 418 kts 199°
2026-05-06 10:57 47.21451 13.80591 35850 ft 420 kts 199°
2026-05-06 10:58 47.15820 13.78590 35850 ft 418 kts 199°
2026-05-06 10:58 47.10135 13.76577 35847 ft 419 kts 199°
2026-05-06 10:59 47.04485 13.74579 35856 ft 420 kts 199°
2026-05-06 10:59 46.98788 13.72569 35859 ft 420 kts 199°
2026-05-06 11:00 46.93125 13.70576 35858 ft 419 kts 199°
2026-05-06 11:00 46.87470 13.68548 35864 ft 418 kts 200°
2026-05-06 11:01 46.81937 13.66245 35878 ft 418 kts 201°
2026-05-06 11:01 46.76379 13.63895 35881 ft 417 kts 201°
2026-05-06 11:02 46.70834 13.61562 35898 ft 416 kts 201°
2026-05-06 11:02 46.65290 13.59244 35896 ft 416 kts 201°
2026-05-06 11:03 46.59718 13.56916 35904 ft 416 kts 201°
2026-05-06 11:03 46.54143 13.54595 35898 ft 417 kts 201°
2026-05-06 11:04 46.48595 13.52290 35899 ft 417 kts 201°
2026-05-06 11:04 46.43005 13.49975 35695 ft 417 kts 201°
2026-05-06 11:04 46.40238 13.48831 35584 ft 416 kts 201°
2026-05-06 11:05 46.37448 13.47680 35454 ft 416 kts 201°
2026-05-06 11:05 46.34677 13.46533 35346 ft 416 kts 201°
2026-05-06 11:05 46.31916 13.45394 35251 ft 415 kts 201°
2026-05-06 11:05 46.29133 13.44248 35150 ft 413 kts 201°
2026-05-06 11:06 46.26368 13.43109 35031 ft 411 kts 201°
2026-05-06 11:06 46.23626 13.41984 34690 ft 407 kts 201°
2026-05-06 11:06 46.20924 13.40873 33883 ft 408 kts 201°
2026-05-06 11:06 46.18205 13.39753 32881 ft 411 kts 201°
2026-05-06 11:07 46.15428 13.38611 31800 ft 415 kts 201°
2026-05-06 11:07 46.12669 13.37476 30895 ft 421 kts 201°
2026-05-06 11:07 46.09831 13.36315 30051 ft 425 kts 201°
2026-05-06 11:07 46.07010 13.35161 29212 ft 429 kts 200°
2026-05-06 11:08 46.04108 13.33966 28356 ft 433 kts 200°
2026-05-06 11:08 46.01208 13.32768 27792 ft 435 kts 199°
2026-05-06 11:08 45.98404 13.31615 27257 ft 438 kts 199°
2026-05-06 11:08 45.95459 13.30409 26685 ft 441 kts 199°
2026-05-06 11:09 45.92501 13.29205 26116 ft 442 kts 199°
2026-05-06 11:09 45.89549 13.28007 25547 ft 445 kts 198°
2026-05-06 11:09 45.86543 13.26790 24966 ft 448 kts 198°
2026-05-06 11:09 45.83527 13.25577 24365 ft 450 kts 198°
2026-05-06 11:10 45.80505 13.24357 23756 ft 452 kts 198°
2026-05-06 11:10 45.77506 13.23149 23145 ft 449 kts 198°
2026-05-06 11:10 45.74535 13.21952 22523 ft 446 kts 198°
2026-05-06 11:10 45.71542 13.20746 21923 ft 443 kts 198°
2026-05-06 11:11 45.68615 13.19568 21323 ft 440 kts 197°
2026-05-06 11:11 45.65687 13.18254 20702 ft 435 kts 202°
2026-05-06 11:11 45.62956 13.16467 20127 ft 430 kts 209°
2026-05-06 11:11 45.60417 13.14235 19564 ft 427 kts 214°
2026-05-06 11:12 45.57996 13.11910 18990 ft 423 kts 214°
2026-05-06 11:12 45.55580 13.09561 18411 ft 420 kts 214°
2026-05-06 11:12 45.53198 13.07241 17840 ft 412 kts 214°
2026-05-06 11:12 45.50847 13.04960 17260 ft 402 kts 214°
2026-05-06 11:13 45.48574 13.02756 16734 ft 393 kts 214°
2026-05-06 11:13 45.46347 13.00601 16230 ft 384 kts 214°
2026-05-06 11:13 45.44137 12.98464 15765 ft 374 kts 214°
2026-05-06 11:13 45.42016 12.96415 15316 ft 366 kts 214°
2026-05-06 11:14 45.39934 12.94404 14743 ft 362 kts 214°
2026-05-06 11:14 45.37864 12.92409 14189 ft 358 kts 214°
2026-05-06 11:14 45.35819 12.90440 13650 ft 353 kts 214°
2026-05-06 11:14 45.33821 12.88518 13145 ft 348 kts 214°
2026-05-06 11:15 45.31942 12.86323 12617 ft 344 kts 224°
2026-05-06 11:15 45.30431 12.83767 12170 ft 338 kts 234°
2026-05-06 11:15 45.29233 12.80945 11760 ft 332 kts 241°
2026-05-06 11:15 45.28315 12.77945 11307 ft 328 kts 248°
2026-05-06 11:16 45.27669 12.74867 10936 ft 322 kts 253°
2026-05-06 11:16 45.27144 12.71795 10481 ft 317 kts 254°
2026-05-06 11:16 45.26651 12.68810 10215 ft 307 kts 254°
2026-05-06 11:16 45.26172 12.65918 10093 ft 293 kts 254°
2026-05-06 11:17 45.25711 12.63154 9994 ft 279 kts 253°
2026-05-06 11:17 45.25267 12.60511 9888 ft 271 kts 253°
2026-05-06 11:17 45.24829 12.57931 9569 ft 268 kts 253°
2026-05-06 11:17 45.24392 12.55364 9297 ft 266 kts 253°
2026-05-06 11:18 45.23963 12.52845 9003 ft 262 kts 253°
2026-05-06 11:18 45.23540 12.50361 8715 ft 257 kts 253°
2026-05-06 11:18 45.23121 12.47912 8434 ft 253 kts 253°
2026-05-06 11:18 45.22710 12.45502 8062 ft 248 kts 253°
2026-05-06 11:19 45.22310 12.43167 7721 ft 241 kts 253°
2026-05-06 11:19 45.21924 12.40907 7402 ft 234 kts 253°
2026-05-06 11:19 45.21549 12.38711 7081 ft 228 kts 253°
2026-05-06 11:19 45.21171 12.36521 6788 ft 228 kts 253°
2026-05-06 11:20 45.20797 12.34356 6520 ft 225 kts 252°
2026-05-06 11:20 45.20427 12.32198 6237 ft 225 kts 253°
2026-05-06 11:20 45.20059 12.30054 5953 ft 224 kts 252°
2026-05-06 11:20 45.19706 12.27916 5671 ft 224 kts 258°
2026-05-06 11:21 45.19746 12.25694 5377 ft 229 kts 279°
2026-05-06 11:21 45.20367 12.23584 5109 ft 233 kts 294°
2026-05-06 11:21 45.21200 12.21611 4854 ft 233 kts 297°
2026-05-06 11:21 45.22051 12.19657 4602 ft 233 kts 297°
2026-05-06 11:22 45.22899 12.17704 4401 ft 228 kts 296°
2026-05-06 11:22 45.23709 12.15818 4193 ft 224 kts 297°
2026-05-06 11:22 45.24509 12.13946 4104 ft 214 kts 296°
2026-05-06 11:22 45.25269 12.12168 4059 ft 211 kts 296°
2026-05-06 11:23 45.26179 12.10518 4000 ft 217 kts 320°
2026-05-06 11:23 45.27582 12.09698 3966 ft 222 kts 345°
2026-05-06 11:23 45.29110 12.09438 3894 ft 225 kts
2026-05-06 11:23 45.30616 12.10084 3856 ft 226 kts 28°
2026-05-06 11:24 45.31930 12.11322 3822 ft 225 kts 40°
2026-05-06 11:24 45.33123 12.12739 3773 ft 223 kts 43°
2026-05-06 11:24 45.34261 12.14184 3735 ft 219 kts 45°
2026-05-06 11:24 45.35403 12.15669 3606 ft 224 kts 45°
2026-05-06 11:25 45.36552 12.17168 3335 ft 224 kts 44°
2026-05-06 11:25 45.37708 12.18670 3039 ft 225 kts 44°
2026-05-06 11:25 45.38873 12.20179 2740 ft 226 kts 44°
2026-05-06 11:25 45.40031 12.21673 2423 ft 219 kts 44°
2026-05-06 11:26 45.41094 12.23041 2215 ft 195 kts 45°
2026-05-06 11:26 45.42069 12.24297 1946 ft 185 kts 45°
2026-05-06 11:26 45.43002 12.25502 1710 ft 174 kts 45°
2026-05-06 11:26 45.43880 12.26635 1491 ft 171 kts 45°
2026-05-06 11:27 45.44734 12.27736 1245 ft 159 kts 45°
2026-05-06 11:27 45.45524 12.28751 1020 ft 146 kts 45°
2026-05-06 11:27 45.46246 12.29683 817 ft 136 kts 45°
2026-05-06 11:27 45.46947 12.30588 647 ft 135 kts 45°
2026-05-06 11:28 45.47638 12.31477 466 ft 133 kts 45°
2026-05-06 11:28 45.48326 12.32369 285 ft 132 kts 44°
2026-05-06 11:28 45.48999 12.33237 134 ft 131 kts 44°
2026-05-06 11:28 45.49670 12.34105 14 ft 128 kts 44°
2026-05-06 11:29 45.50242 12.34845 9 ft 86 kts 41°
2026-05-06 11:29 45.50557 12.35240 10 ft 35 kts 41°
2026-05-06 11:29 45.50731 12.35466 12 ft 31 kts 41°
2026-05-06 11:29 45.50884 12.35549 12 ft 13 kts
2026-05-06 11:30 45.50970 12.35563 12 ft 10 kts 338°
2026-05-06 11:30 45.50995 12.35467 11 ft 12 kts 247°
2026-05-06 11:30 45.50927 12.35371 9 ft 15 kts 220°
2026-05-06 11:30 45.50845 12.35267 9 ft 16 kts 221°
2026-05-06 11:31 45.50758 12.35159 9 ft 17 kts 220°
2026-05-06 11:31 45.50669 12.35041 9 ft 17 kts 225°
2026-05-06 11:31 45.50611 12.34899 9 ft 16 kts 265°
2026-05-06 11:31 45.50606 12.34738 9 ft 16 kts 267°
2026-05-06 11:32 45.50599 12.34574 9 ft 16 kts 265°
2026-05-06 11:32 45.50599 12.34414 9 ft 14 kts 285°
2026-05-06 11:32 45.50664 12.34297 9 ft 14 kts 313°
2026-05-06 11:32 45.50702 12.34222 9 ft 8 kts 268°
2026-05-06 11:33 45.50666 12.34154 9 ft 7 kts 226°
2026-05-06 11:33 45.50645 12.34124 9 ft 1 kts 226°
2026-05-06 11:33 45.50645 12.34123 9 ft 0 kts 226°